2023/03/04 00:00:00,63.1,-0.6
2023/03/04 00:10:00,63.1,-0.4
2023/03/04 00:20:00,63.1,-0.5
2023/03/04 00:30:00,63.1,-0.6
2023/03/04 00:40:00,63.1,-0.6
2023/03/04 00:50:00,63.1,-0.4
2023/03/04 01:00:00,63.1,-0.5
2023/03/04 01:10:00,63.1,-0.2
2023/03/04 01:20:00,63.1,-0.7
2023/03/04 01:30:00,63.1,-0.7
2023/03/04 01:40:00,63.1,-0.6
2023/03/04 01:50:00,63.1,-0.9
2023/03/04 02:00:00,63.1,-0.3
2023/03/04 02:10:00,63.1,-0.1
2023/03/04 02:20:00,63.1, 0.3
2023/03/04 02:30:00,63.0,-0.1
2023/03/04 02:40:00,63.1, 0.5
2023/03/04 02:50:00,63.1, 0.5
2023/03/04 03:00:00,63.0, 0.7
2023/03/04 03:10:00,63.0, 0.3
2023/03/04 03:20:00,63.0, 0.7
2023/03/04 03:30:00,63.0, 1.1
2023/03/04 03:40:00,63.0, 0.9
2023/03/04 03:50:00,62.9, 0.8
2023/03/04 04:00:00,63.0, 0.9
2023/03/04 04:10:00,63.0, 0.7
2023/03/04 04:20:00,63.0, 0.3
2023/03/04 04:30:00,63.0, 0.0
2023/03/04 04:40:00,63.1, 0.1
2023/03/04 04:50:00,63.1,-0.1
2023/03/04 05:00:00,63.1,-0.4
2023/03/04 05:10:00,63.0,-0.3
2023/03/04 05:20:00,63.1,-0.5
2023/03/04 05:30:00,63.1,-0.5
2023/03/04 05:40:00,63.1,-0.8
2023/03/04 05:50:00,63.1,-1.1
2023/03/04 06:00:00,63.1,-1.2
2023/03/04 06:10:00,63.1,-0.8
2023/03/04 06:20:00,63.1,-1.1
2023/03/04 06:30:00,63.0,-1.1
2023/03/04 06:40:00,63.0,-0.9
2023/03/04 06:50:00,63.0,-1.2
2023/03/04 07:00:00,63.0,-0.8
2023/03/04 07:10:00,63.0,-0.3
2023/03/04 07:20:00,62.9,-0.2
2023/03/04 07:30:00,62.8,-0.2
2023/03/04 07:40:00,62.8, 1.1
2023/03/04 07:50:00,62.7, 0.7
2023/03/04 08:00:00,62.7, 0.9
2023/03/04 08:10:00,62.7, 1.7
2023/03/04 08:20:00,62.6, 2.4
2023/03/04 08:30:00,62.6, 3.0
2023/03/04 08:40:00,62.5, 4.2
2023/03/04 08:50:00,62.4, 5.3
2023/03/04 09:00:00,62.4, 5.9
2023/03/04 09:10:00,62.4, 6.3
2023/03/04 09:20:00,62.4, 5.9
2023/03/04 09:30:00,62.4, 5.9
2023/03/04 09:40:00,62.4, 6.0
2023/03/04 09:50:00,62.3, 6.3
2023/03/04 10:00:00,62.3, 7.3
2023/03/04 10:10:00,62.0, 9.1
2023/03/04 10:20:00,61.9,10.0
2023/03/04 10:30:00,61.8, 9.9
2023/03/04 10:40:00,61.8,10.6
2023/03/04 10:50:00,61.4,11.6
2023/03/04 11:00:00,61.3,13.3
2023/03/04 11:10:00,61.2,15.3
2023/03/04 11:20:00,61.4,13.0
2023/03/04 11:30:00,61.0,12.3
2023/03/04 11:40:00,61.3,11.6
2023/03/04 11:50:00,60.7,13.4
2023/03/04 12:00:00,60.6,14.6
2023/03/04 12:10:00,60.8,13.9
2023/03/04 12:20:00,60.6,15.7
2023/03/04 12:30:00,60.3,15.1
2023/03/04 12:40:00,60.0,17.5
2023/03/04 12:50:00,60.0,14.9
2023/03/04 13:00:00,60.1,14.8
2023/03/04 13:10:00,60.4,14.0
2023/03/04 13:20:00,59.7,15.7
2023/03/04 13:30:00,10.1,17.2
2023/03/04 13:40:00,---,19.3
2023/03/04 13:50:00,59.5,14.4
2023/03/04 14:00:00,58.9,16.3
2023/03/04 14:10:00,---,17.9
2023/03/04 14:20:00,58.9,17.9
2023/03/04 14:30:00,58.6,16.6
2023/03/04 14:40:00,59.0,14.5
2023/03/04 14:50:00,59.0,14.9
2023/03/04 15:00:00,58.0,16.4
2023/03/04 15:10:00,58.8,12.4
2023/03/04 15:20:00,58.3,16.6
2023/03/04 15:30:00,58.2,17.4
2023/03/04 15:40:00,57.6,19.4
2023/03/04 15:50:00,57.3,19.9
2023/03/04 16:00:00,57.4,17.5
2023/03/04 16:10:00,57.4,17.9
2023/03/04 16:20:00,57.4,17.3
2023/03/04 16:30:00,57.5,16.4
2023/03/04 16:40:00,57.8,15.9
2023/03/04 16:50:00,57.9,14.8
2023/03/04 17:00:00,58.2,11.6
2023/03/04 17:10:00,58.4,10.6
2023/03/04 17:20:00,58.5, 8.5
2023/03/04 17:30:00,58.3, 7.1
2023/03/04 17:40:00,58.2, 6.8
2023/03/04 17:50:00,58.2, 6.0
2023/03/04 18:00:00,58.2, 5.3
2023/03/04 18:10:00,58.4, 4.7
2023/03/04 18:20:00,58.4, 4.2
2023/03/04 18:30:00,58.4, 4.3
2023/03/04 18:40:00,58.4, 3.5
2023/03/04 18:50:00,58.4, 3.0
2023/03/04 19:00:00,58.4, 2.6
2023/03/04 19:10:00,58.4, 2.2
2023/03/04 19:20:00,58.5, 2.0
2023/03/04 19:30:00,58.4, 1.7
2023/03/04 19:40:00,58.4, 1.5
2023/03/04 19:50:00,58.3, 1.1
2023/03/04 20:00:00,58.3, 1.4
2023/03/04 20:10:00,58.3, 1.0
2023/03/04 20:20:00,58.3, 0.8
2023/03/04 20:30:00,58.4, 0.8
2023/03/04 20:40:00,58.3, 1.0
2023/03/04 20:50:00,58.3, 0.9
2023/03/04 21:00:00,58.2, 0.7
2023/03/04 21:10:00,58.4, 0.6
2023/03/04 21:20:00,58.4, 0.8
2023/03/04 21:30:00,58.4, 1.0
2023/03/04 21:40:00,58.3, 0.6
2023/03/04 21:50:00,58.2, 0.6
2023/03/04 22:00:00,58.2, 0.6
2023/03/04 22:10:00,58.2, 1.0
2023/03/04 22:20:00,58.2, 0.9
2023/03/04 22:30:00,58.2, 0.7
2023/03/04 22:40:00,58.2, 1.0
2023/03/04 22:50:00,58.2, 0.7
2023/03/04 23:00:00,58.3, 0.7
2023/03/04 23:10:00,58.3, 0.5
2023/03/04 23:20:00,58.5, 0.5
2023/03/04 23:30:00,58.4, 0.0
2023/03/04 23:40:00,58.3,-0.1
2023/03/04 23:50:00,58.5,-0.1
